When you browse on this site, cookies collect data to enhance your experience and personalize the content and advertising you see.
Visit our Privacy Policy to learn more. By continuing to use the site, you agree to this use of cookies and data.
  • In Hungary
  • List of Countries
  • For 7 days
  • Water Temperature
  • Weather Map
  • News
  • Weather Widgets
  • user-avatar
    Login

    Hourly Weather Terni

    Today, 10 December, Tuesday

    Time Temperature Precipitation Wind Pressure Humidity
    00:00 +9°C° 0 mm 1 mps 741 mmHg 89%
    01:00 +8°C° 0 mm 1 mps 741 mmHg 90%
    02:00 +8°C° 0 mm 1 mps 741 mmHg 90%
    03:00 +8°C° 0 mm 1 mps 741 mmHg 89%
    04:00 +7°C° 0 mm 2 mps 741 mmHg 89%
    05:00 +7°C° 0 mm 2 mps 742 mmHg 89%
    06:00 +7°C° 0 mm 2 mps 742 mmHg 90%
    07:00 +7°C° 0 mm 3 mps 743 mmHg 90%
    08:00 +8°C° 0 mm 3 mps 743 mmHg 87%
    09:00 +8°C° 0 mm 4 mps 744 mmHg 83%
    10:00 +10°C° 0 mm 4 mps 744 mmHg 80%
    11:00 +10°C° 0 mm 5 mps 745 mmHg 74%
    12:00 +10°C° 0 mm 6 mps 745 mmHg 67%
    13:00 +11°C° 0 mm 7 mps 746 mmHg 60%
    14:00 +10°C° 0 mm 7 mps 746 mmHg 63%
    15:00 +9°C° 0 mm 7 mps 746 mmHg 65%
    16:00 +8°C° 0 mm 7 mps 746 mmHg 67%
    17:00 +8°C° 0 mm 6 mps 746 mmHg 69%
    18:00 +7°C° 0 mm 5 mps 747 mmHg 70%
    19:00 +6°C° 0 mm 5 mps 747 mmHg 72%
    20:00 +6°C° 0 mm 5 mps 748 mmHg 73%
    21:00 +5°C° 0 mm 4 mps 748 mmHg 75%
    22:00 +5°C° 0 mm 4 mps 748 mmHg 76%
    23:00 +5°C° 0 mm 4 mps 748 mmHg 76%

    Tomorrow, 11 December, Wednesday

    Time Temperature Precipitation Wind Pressure Humidity
    00:00 +4°C° 0 mm 4 mps 748 mmHg 76%
    01:00 +3°C° 0 mm 4 mps 749 mmHg 76%
    02:00 +3°C° 0 mm 3 mps 748 mmHg 77%
    03:00 +3°C° 0 mm 3 mps 747 mmHg 77%
    04:00 +2°C° 0 mm 3 mps 747 mmHg 78%
    05:00 +2°C° 0 mm 3 mps 747 mmHg 78%
    06:00 +2°C° 0 mm 3 mps 747 mmHg 78%
    07:00 +2°C° 0 mm 3 mps 747 mmHg 78%
    08:00 +3°C° 0 mm 3 mps 747 mmHg 72%
    09:00 +4°C° 0 mm 3 mps 747 mmHg 66%
    10:00 +7°C° 0 mm 3 mps 747 mmHg 59%
    11:00 +8°C° 0 mm 3 mps 746 mmHg 55%
    12:00 +9°C° 0 mm 2 mps 746 mmHg 51%
    13:00 +10°C° 0 mm 2 mps 745 mmHg 47%
    14:00 +9°C° 0 mm 2 mps 745 mmHg 52%
    15:00 +9°C° 0 mm 1 mps 744 mmHg 58%
    16:00 +8°C° 0 mm 1 mps 744 mmHg 63%
    17:00 +7°C° 0 mm 1 mps 744 mmHg 66%
    18:00 +6°C° 0 mm 1 mps 744 mmHg 69%
    19:00 +5°C° 0 mm 1 mps 744 mmHg 72%
    20:00 +5°C° 0 mm 1 mps 744 mmHg 73%
    21:00 +4°C° 0 mm 0 mps 743 mmHg 74%
    22:00 +3°C° 0 mm 0 mps 743 mmHg 74%
    23:00 +5°C° 0 mm 1 mps 743 mmHg 73%

    Day after tomorrow, 12 December, Thursday

    Time Temperature Precipitation Wind Pressure Humidity
    00:00 +5°C° 0 mm 1 mps 742 mmHg 72%
    01:00 +6°C° 0 mm 1 mps 742 mmHg 70%
    02:00 +6°C° 0 mm 1 mps 741 mmHg 71%
    03:00 +6°C° 0 mm 1 mps 741 mmHg 71%
    04:00 +6°C° 0 mm 1 mps 740 mmHg 71%
    05:00 +6°C° 0 mm 1 mps 740 mmHg 74%
    06:00 +5°C° 0 mm 1 mps 740 mmHg 76%
    07:00 +5°C° 0 mm 1 mps 740 mmHg 78%
    08:00 +5°C° 0.1 mm 2 mps 740 mmHg 76%
    09:00 +7°C° 0.1 mm 2 mps 740 mmHg 74%
    10:00 +8°C° 0.1 mm 2 mps 740 mmHg 71%
    11:00 +9°C° 0 mm 2 mps 740 mmHg 70%
    12:00 +9°C° 0 mm 3 mps 740 mmHg 69%
    13:00 +10°C° 0 mm 3 mps 740 mmHg 67%
    14:00 +9°C° 0.2 mm 3 mps 740 mmHg 71%
    15:00 +8°C° 0.2 mm 2 mps 740 mmHg 75%
    16:00 +9°C° 0.2 mm 1 mps 740 mmHg 79%
    17:00 +8°C° 0 mm 1 mps 741 mmHg 82%
    18:00 +7°C° 0 mm 1 mps 741 mmHg 84%
    19:00 +6°C° 0 mm 1 mps 741 mmHg 86%
    20:00 +6°C° 0 mm 1 mps 741 mmHg 87%
    21:00 +4°C° 0 mm 0 mps 741 mmHg 87%
    22:00 +4°C° 0 mm 0 mps 741 mmHg 88%
    23:00 +3°C° 0 mm 0 mps 741 mmHg 88%

    13 December, Friday

    Time Temperature Precipitation Wind Pressure Humidity
    00:00 +4°C° 0 mm 1 mps 741 mmHg 88%
    01:00 +4°C° 0 mm 1 mps 740 mmHg 89%
    02:00 +4°C° 0 mm 1 mps 740 mmHg 85%
    03:00 +5°C° 0 mm 1 mps 740 mmHg 82%
    04:00 +4°C° 0 mm 2 mps 739 mmHg 79%
    05:00 +4°C° 0 mm 2 mps 739 mmHg 80%
    06:00 +3°C° 0 mm 3 mps 738 mmHg 80%
    07:00 +4°C° 0 mm 3 mps 737 mmHg 81%
    08:00 +4°C° 0.4 mm 4 mps 736 mmHg 84%
    09:00 +5°C° 0.4 mm 4 mps 736 mmHg 86%
    10:00 +6°C° 0.4 mm 5 mps 735 mmHg 89%
    11:00 +6°C° 1.6 mm 5 mps 733 mmHg 91%
    12:00 +7°C° 1.6 mm 5 mps 732 mmHg 94%
    13:00 +8°C° 1.6 mm 5 mps 731 mmHg 96%
    14:00 +9°C° 1.8 mm 5 mps 730 mmHg 96%
    15:00 +10°C° 1.8 mm 5 mps 729 mmHg 95%
    16:00 +12°C° 1.8 mm 5 mps 728 mmHg 94%
    17:00 +10°C° 1.5 mm 5 mps 728 mmHg 91%
    18:00 +9°C° 1.5 mm 5 mps 728 mmHg 88%
    19:00 +8°C° 1.5 mm 5 mps 728 mmHg 85%
    20:00 +7°C° 0.1 mm 4 mps 728 mmHg 86%
    21:00 +7°C° 0.1 mm 2 mps 729 mmHg 87%
    22:00 +7°C° 0.1 mm 1 mps 730 mmHg 88%
    23:00 +7°C° 0 mm 1 mps 730 mmHg 88%

    14 December, Saturday

    Time Temperature Precipitation Wind Pressure Humidity
    00:00 +6°C° 0 mm 1 mps 731 mmHg 87%
    01:00 +6°C° 0 mm 1 mps 732 mmHg 87%
    02:00 +6°C° 0 mm 1 mps 733 mmHg 85%
    03:00 +5°C° 0 mm 1 mps 733 mmHg 84%
    04:00 +4°C° 0 mm 0 mps 734 mmHg 82%
    05:00 +5°C° 0 mm 1 mps 735 mmHg 80%
    06:00 +5°C° 0 mm 1 mps 736 mmHg 78%
    07:00 +5°C° 0 mm 1 mps 737 mmHg 76%
    08:00 +7°C° 0 mm 1 mps 737 mmHg 75%
    09:00 +8°C° 0 mm 1 mps 738 mmHg 73%
    10:00 +10°C° 0 mm 1 mps 738 mmHg 72%
    11:00 +10°C° 0 mm 1 mps 739 mmHg 75%
    12:00 +11°C° 0 mm 1 mps 739 mmHg 79%
    13:00 +12°C° 0 mm 1 mps 739 mmHg 82%
    14:00 +12°C° 0 mm 1 mps 739 mmHg 84%
    15:00 +12°C° 0 mm 1 mps 740 mmHg 86%
    16:00 +12°C° 0 mm 1 mps 740 mmHg 88%
    17:00 +12°C° 0 mm 1 mps 741 mmHg 89%
    18:00 +12°C° 0 mm 1 mps 741 mmHg 89%
    19:00 +12°C° 0 mm 1 mps 742 mmHg 90%
    20:00 +12°C° 0 mm 1 mps 742 mmHg 90%
    21:00 +12°C° 0 mm 1 mps 743 mmHg 90%
    22:00 +12°C° 0 mm 1 mps 743 mmHg 90%
    23:00 +12°C° 0 mm 1 mps 744 mmHg 90%

    15 December, Sunday

    Time Temperature Precipitation Wind Pressure Humidity
    00:00 +12°C° 0 mm 1 mps 744 mmHg 90%
    01:00 +12°C° 0 mm 1 mps 745 mmHg 90%
    02:00 +12°C° 0 mm 1 mps 745 mmHg 89%
    03:00 +11°C° 0 mm 1 mps 745 mmHg 89%
    04:00 +11°C° 0 mm 1 mps 746 mmHg 89%
    05:00 +11°C° 0 mm 1 mps 746 mmHg 88%
    06:00 +11°C° 0 mm 1 mps 746 mmHg 87%
    07:00 +11°C° 0 mm 1 mps 747 mmHg 87%
    08:00 +12°C° 0 mm 2 mps 747 mmHg 85%
    09:00 +13°C° 0 mm 2 mps 748 mmHg 84%
    10:00 +14°C° 0 mm 2 mps 748 mmHg 83%
    11:00 +15°C° 0 mm 2 mps 748 mmHg 84%
    12:00 +14°C° 0 mm 3 mps 748 mmHg 84%
    13:00 +16°C° 0 mm 3 mps 748 mmHg 84%
    14:00 +14°C° 0 mm 3 mps 748 mmHg 85%
    15:00 +15°C° 0 mm 2 mps 748 mmHg 87%
    16:00 +14°C° 0 mm 2 mps 749 mmHg 88%
    17:00 +14°C° 0 mm 2 mps 749 mmHg 89%
    18:00 +13°C° 0 mm 2 mps 749 mmHg 90%
    19:00 +12°C° 0 mm 1 mps 749 mmHg 91%
    20:00 +12°C° 0 mm 1 mps 750 mmHg 91%
    21:00 +11°C° 0 mm 1 mps 750 mmHg 91%
    22:00 +11°C° 0 mm 1 mps 750 mmHg 92%
    23:00 +11°C° 0 mm 1 mps 750 mmHg 92%
    Show more